Regional Weather Roundup
Issued by NWS Lake Charles, LA

Home | Current Version | Previous Version | Text Only | Print | Product List | Glossary On
Versions: 1 2 3 4 5 6 7 8 9 10 11 12 13 14 15 16 17 18 19 20 21 22 23 24 25 26 27 28 29 30 31 32 33 34 35 36 37 38 39 40 41 42 43 44 45 46 47 48 49 50
000
ASUS44 KLCH 211010
RWRLCH
REGIONAL WEATHER ROUNDUP
NATIONAL WEATHER SERVICE LAKE CHARLES LA
400 AM CST SAT JAN 21 2017

Note: "fair" indicates few or no clouds below 12,000 feet with no
significant weather and/or obstructions to visibility.


ACROSS SOUTHEAST TEXAS

CITY           SKY/WX    TMP DP  RH WIND       PRES   REMARKS
BEAUMONT       CLOUDY    64  61  90 SE3       29.65S
BEAUMONT CITY  PTSUNNY   62  60  94 SE5       29.65F
ORANGE         PTSUNNY   61  60  96 CALM      29.67S
JASPER         CLEAR     57  56  97 CALM      29.67F
$$

ACROSS CENTRAL LOUISIANA

CITY           SKY/WX    TMP DP  RH WIND       PRES   REMARKS
LEESVILLE      CLOUDY    58  57  98 SE3       29.64F
FULLERTON      FAIR      58  57  97 CALM      29.62F
ALEXANDRIA INT PTCLDY    59  58  96 E6        29.62F
ESLER FIELD    CLOUDY    59  59 100 E5        29.65F
DERIDDER       FAIR      59  57  96 CALM      29.67F
OAKDALE        CLOUDY    60  58  96 CALM      29.65F
OPELOUSAS      CLOUDY    62  58  88 MISG      29.68F THUNDER
$$

ACROSS SOUTHWEST AND SOUTH CENTRAL LOUISIANA

CITY           SKY/WX    TMP DP  RH WIND       PRES   REMARKS
SULPHUR        MOSUNNY   62  60  93 CALM      29.67S
LAKE CHARLES   CLOUDY    62  62 100 SE6       29.66F
CHENNAULT INT  MOCLDY    60  59  95 E6        29.66F
CAMERON PHI    CLOUDY    64  63  94 NE8       29.66S
DEQUINCY       FAIR      58  58  98 CALM      29.65F
JENNINGS       LGT RAIN  63  59  88 NE5       29.97S
LAFAYETTE      LGT RAIN  65  60  84 N13G21    29.68R
NEW IBERIA     TSTM      66  60  81 NW13G32   29.69R
ABBEVILLE      TSTM      64  63  94 NW16G30   29.68R
PATTERSON      CLOUDY    72  70  93 S18G24    29.67F
SALT POINT     NOT AVBL
$$

SELECTED SITES ACROSS THE REGION

CITY           SKY/WX    TMP DP  RH WIND       PRES   REMARKS
HOUSTON BUSH   CLOUDY    63  62  97 E5        29.60F
HOUSTON HOBBY  MOCLDY    65  63  93 E5        29.61F
GALVESTON      CLOUDY    71  69  93 SW5       29.64F FOG
COLLEGE STAT   CLOUDY    61  61 100 SE3       29.59F FOG
CONROE         PTCLDY    58  57  97 E6        29.60F
HUNTSVILLE     CLEAR     60  59  96 S5        29.60F
LUFKIN         CLEAR     53  52  96 E6        29.63F
SHREVEPORT     PTCLDY    58  57  97 CALM      29.61F
MONROE         LGT RAIN  61  57  87 S14       29.70F
NATCHEZ MS     CLOUDY    59  55  88 NW8       29.75R
BATON ROUGE    TSTM      64  63  96 NW7       29.65F FOG
N.O. INTL ARPT CLOUDY    73  69  87 S21G35    29.65F
SLIDELL        CLOUDY    72  69  90 S17G24    29.65F
$$

MARINE REPORTS

STATION/POSITION TIME  SKY/WX   TEMP    WIND        PRES    VSBY
                                AIR SEA DIR/SP/G
                 (UTC)          (F)     (DEG/KT/KT) (MB)    (MI)
BUOY 30 S HIGH I 0950            68 67  230/  4/  4 1004.0R
WVE H/P(F/S)=  2/ 4

SEA RIM ST PARK  0900            66      80/  1/  2 1004.8F
PORT ARTHUR      0948               65  100/  2/  3 1004.3F
SABINE PASS N    0948            65 68   80/  4/  7 1005.6F
TEXAS POINT      NOT AVBL
CALCASIEU PASS   0948            65 65   30/ 10/ 12   N/A
LK CHARLES BEACH 0948            63 65              1004.7F
MARSH ISLAND     NOT AVBL
FRESH WATER LOCK 0948            69 69  200/  8/ 11 1005.4R
AMERADA PASS     0948            69 52  170/  7/ 12 1004.6F
$$



USA.gov is the U.S. government's official web portal to all federal, state and local government web resources and services.